Theta_e
302 302 301 301 301 303 306 307 302 302 303 301 304 303 300 301 303 305 304 302 305 300 302 303 302 303 303 303 303 302 301 302 305 305 303 301 303 302 302 302 302 301 301 298 299
302 302 302 302 301 301 301 302 301 301 302 302 302 303 301 300 303 306 303 300 300 299 302 302 303 303 303 304 303 302 302 305 303 302 301 301 301 300 302 301 301 301 298 297 298
304 305 306 306 305 303 302 301 301 301 300 301 302 304 303 302 308 303 300 299 299 300 301 302 302 303 305 304 304 304 303 303 302 302 301 301 299 300 300 299 299 300 298 296 296
307 309 310 311 309 305 302 301 301 300 300 301 301 303 303 306 307 302 300 300 301 301 302 302 302 304 305 305 303 301 303 303 303 301 301 300 299 299 299 298 298 296 296 296 295
308 309 311 312 311 308 304 301 301 300 300 301 301 303 304 304 303 300 300 301 302 302 301 302 303 303 304 303 302 302 302 302 301 301 300 299 299 300 299 298 296 296 296 296 295
309 310 311 312 312 310 305 300 299 300 301 301 301 303 305 306 300 300 300 302 302 302 301 301 301 301 302 302 301 302 302 301 301 301 301 301 300 300 299 296 296 297 297 296 295
310 310 311 312 312 312 302 300 298 301 300 301 302 305 304 304 300 300 301 300 302 302 302 302 302 302 302 303 302 302 301 302 302 301 301 298 300 298 297 296 296 296 295 295 294
313 312 311 312 312 309 300 299 299 300 301 301 303 307 300 300 300 300 301 301 301 302 302 301 302 302 302 302 302 302 302 303 304 301 300 300 301 298 295 296 296 295 293 294 294
314 313 313 313 313 307 300 299 300 300 301 302 304 304 302 299 300 300 301 301 301 301 302 301 302 301 301 302 302 303 305 304 303 301 299 299 300 299 296 296 295 294 293 293 293
315 315 314 313 314 305 302 302 300 303 301 300 302 300 299 301 300 300 299 301 301 301 302 302 302 301 300 302 300 306 303 302 302 302 300 300 300 298 298 296 295 293 293 292 291
314 314 315 313 313 306 302 304 301 303 302 302 301 300 300 299 299 300 300 300 300 301 303 303 302 303 302 301 302 301 302 300 300 301 300 299 299 299 298 298 297 293 293 291 289
311 312 313 314 313 307 302 301 300 299 301 300 299 299 299 299 300 300 299 301 301 302 302 302 303 302 303 302 302 302 302 301 301 300 299 298 299 299 298 297 296 294 290 289 289
309 310 313 314 311 305 300 299 301 303 303 302 298 299 299 299 300 300 300 301 302 303 303 303 304 302 301 301 302 302 302 302 302 298 298 297 297 296 297 295 293 292 291 289 288
307 308 311 314 310 307 300 300 301 302 305 307 299 299 299 299 300 299 299 300 302 302 303 303 302 302 301 301 300 301 300 299 299 295 298 296 298 297 297 296 295 293 290 288 285
305 308 312 313 311 303 303 300 301 303 314 302 298 297 299 300 299 300 298 299 300 303 301 302 301 301 302 302 300 299 298 298 299 293 294 297 290 295 296 296 295 293 290 286 284
306 308 311 309 307 303 300 301 303 310 315 302 298 300 300 300 300 299 300 298 299 300 301 302 299 300 301 299 299 298 299 301 297 297 297 294 296 299 295 292 295 292 289 286 284
305 307 309 309 304 305 303 304 314 320 309 305 299 300 300 301 301 301 302 302 302 311 309 304 301 298 297 299 298 296 297 293 295 302 298 298 298 299 294 292 289 287 286 283 284
305 306 306 308 305 304 304 307 313 304 314 303 300 300 301 302 303 304 305 305 303 304 304 307 309 299 298 299 300 298 295 294 292 295 296 299 295 299 289 284 281 281 280 284 283
305 305 305 302 304 302 309 306 303 311 306 305 308 305 306 302 304 304 302 303 303 301 303 305 307 296 296 296 297 300 300 296 290 286 297 294 297 299 292 287 283 281 286 284 282
306 303 301 300 302 305 307 306 308 302 303 304 310 309 311 304 304 303 304 301 300 299 298 302 299 299 295 296 295 297 296 297 292 293 293 296 297 300 291 288 285 283 283 281 282
305 305 301 300 302 305 310 306 304 300 302 304 306 307 305 307 305 306 307 302 301 300 298 300 299 300 296 293 295 294 295 296 295 293 292 296 296 289 289 282 284 283 284 278 278
307 305 299 300 304 301 307 305 302 300 298 301 299 301 302 305 305 305 308 302 299 299 301 298 300 305 301 290 292 295 290 292 292 292 288 291 297 281 282 278 279 283 284 279 279
303 302 299 300 301 305 302 302 300 300 300 300 301 301 298 301 304 304 302 299 298 299 301 300 303 303 304 297 293 291 292 292 289 288 289 293 296 281 277 281 282 280 276 278 280
302 302 299 299 299 303 303 304 304 299 300 301 301 300 298 299 300 300 302 299 297 297 298 298 301 302 304 300 291 291 289 293 293 286 286 294 293 294 285 281 278 277 275 273 273
303 302 297 303 301 301 300 303 303 303 299 299 300 298 299 299 299 297 300 300 299 298 298 297 301 295 295 293 284 286 287 292 293 287 295 288 286 294 293 283 277 272 271 273 272
302 302 298 300 300 300 301 302 304 304 304 302 301 302 301 299 301 302 297 298 300 298 298 296 299 294 294 284 281 286 286 289 293 284 290 293 295 285 275 271 274 273 270 271 270
301 300 302 302 300 301 301 302 302 302 303 304 302 301 298 298 296 297 296 295 295 298 299 298 298 296 294 289 289 292 285 285 284 280 286 288 289 277 281 276 275 274 272 272 270
Wind_Speed
11 11 13 14 14 14 14 14 12 11 8 6 3 2 3 6 9 3 2 6 8 9 6 9 4 2 4 1 2 3 3 2 2 3 3 2 2 2 1 5 2 5 2 7 8
11 12 13 13 14 14 14 15 13 11 8 7 4 4 6 8 11 1 3 8 6 5 6 10 3 3 1 2 1 3 3 3 1 1 2 2 3 4 2 3 3 4 10 10 12
11 12 13 14 14 15 16 16 13 11 9 6 5 4 5 6 3 2 7 6 6 4 3 4 4 1 1 2 1 2 4 1 2 3 3 3 6 3 2 5 6 5 2 5 8
12 13 14 15 15 15 16 16 13 12 9 6 4 2 3 2 2 1 7 5 6 6 5 2 2 1 2 2 2 1 5 2 0 3 2 2 4 5 7 7 6 7 5 3 4
13 14 15 16 17 17 18 15 13 13 9 5 3 1 1 1 3 3 5 5 6 5 5 3 4 3 1 2 1 3 2 4 3 4 4 4 7 5 10 10 8 6 4 2 1
12 14 16 17 18 19 20 16 14 10 7 3 2 2 0 3 5 3 3 3 5 6 8 7 2 3 3 0 3 2 5 8 7 4 4 4 5 2 3 6 7 5 1 2 1
12 14 16 17 19 23 19 16 13 7 2 3 3 3 2 5 2 3 2 3 5 5 3 5 3 2 2 2 3 2 5 6 6 5 3 2 8 8 8 6 7 5 6 5 4
13 14 16 18 20 24 19 16 8 4 1 3 3 2 4 4 3 1 3 3 4 3 4 2 2 1 0 2 3 2 1 4 1 8 2 5 9 4 7 8 9 9 7 7 5
13 14 16 18 20 21 19 12 5 3 2 3 3 3 4 3 2 1 3 2 3 0 1 1 1 1 2 2 4 2 3 4 3 8 4 6 8 6 9 9 9 9 8 7 6
14 15 16 18 19 19 16 7 2 3 2 1 3 1 1 1 3 2 2 1 0 1 0 0 1 2 2 3 4 3 4 4 5 3 5 9 19 6 8 11 11 10 8 7 5
12 15 15 16 18 16 15 2 5 2 1 5 2 1 3 3 3 2 0 0 1 1 3 3 2 6 7 8 2 3 2 6 6 7 5 9 14 16 8 8 9 8 8 6 3
14 13 14 13 15 13 7 5 2 2 6 5 2 2 3 2 1 1 1 1 2 3 4 2 6 3 4 3 2 2 3 7 6 3 4 9 21 20 9 6 4 8 6 5 1
14 15 12 11 9 6 11 5 1 1 1 2 2 2 1 1 1 2 1 1 3 3 5 5 1 5 2 2 3 3 5 4 5 6 3 9 8 5 2 3 4 4 5 4 2
15 15 13 7 1 3 3 7 2 1 3 2 1 2 1 1 1 0 1 1 2 3 2 5 2 3 4 4 5 3 2 1 3 5 3 5 5 6 3 5 5 7 6 3 6
14 12 8 4 3 2 2 4 3 1 4 1 1 1 2 0 1 1 2 1 4 2 3 3 3 3 4 4 5 7 4 3 0 3 4 3 3 8 3 5 8 8 5 6 6
13 5 3 1 1 1 5 6 0 4 6 1 3 2 1 4 1 1 1 1 2 3 3 5 1 1 2 1 2 2 4 3 3 3 1 5 4 6 4 6 2 4 4 5 6
7 1 1 0 1 3 5 2 2 3 4 4 1 1 3 3 3 1 0 2 3 0 1 1 3 2 2 1 1 6 4 3 5 2 5 3 2 11 6 6 4 2 5 6 6
3 3 2 2 1 2 2 4 2 4 2 2 3 2 3 2 1 1 0 3 4 1 2 3 4 3 1 2 4 2 5 4 5 3 5 2 6 6 4 1 2 3 5 4 3
4 1 1 3 0 1 1 2 6 1 1 5 6 2 3 2 2 2 3 4 3 9 5 0 3 2 3 1 1 2 1 2 4 2 1 4 7 5 2 5 5 5 3 5 3
2 1 3 4 1 2 2 4 3 1 2 2 2 1 2 0 1 0 2 3 2 4 2 1 4 2 2 2 3 1 4 3 3 3 5 6 6 5 4 6 5 6 6 5 4
2 0 3 3 3 2 2 3 1 2 1 2 2 3 2 3 2 1 3 5 5 4 3 2 2 1 2 4 7 1 1 1 3 4 4 3 7 5 6 5 7 6 6 5 4
2 1 4 2 2 0 1 2 2 3 1 1 1 1 1 2 3 3 2 1 9 5 3 1 2 4 4 3 3 1 5 4 4 5 3 3 8 3 5 5 5 7 3 3 1
1 2 4 2 2 3 1 1 1 2 2 4 3 4 1 2 3 2 1 3 1 1 2 0 2 3 1 1 3 1 3 3 4 3 6 5 6 3 4 6 6 6 4 3 2
2 1 1 2 1 1 3 2 2 1 0 1 1 0 1 2 3 3 1 1 3 2 3 0 2 4 5 4 4 2 3 5 5 3 3 7 9 12 6 5 5 4 1 4 3
2 2 2 2 2 4 2 1 1 2 2 3 2 3 3 2 2 3 3 2 2 3 2 1 3 2 6 8 4 6 6 9 10 6 6 4 5 13 14 5 5 3 2 2 3
3 2 1 2 1 4 3 3 2 1 3 2 3 2 5 4 4 3 1 3 0 3 2 1 2 2 5 1 3 6 9 10 11 3 11 15 22 4 3 2 4 5 4 2 3
2 1 2 4 3 3 3 4 5 1 3 1 3 1 4 4 2 3 3 3 4 1 1 1 1 3 5 2 3 7 8 11 5 4 7 6 10 2 4 4 5 4 6 5 5
Wind_Direction
18 16 18 14 9 3 4 359 1 360 355 358 333 283 256 330 336 330 60 326 321 339 353 331 312 281 309 52 2 47 61 255 292 31 185 207 113 207 162 156 162 194 84 120 67
18 16 14 13 5 2 3 358 357 352 347 344 330 290 286 313 328 55 339 334 341 3 23 16 35 340 342 126 345 98 134 226 181 56 61 343 71 336 350 254 242 271 111 69 50
17 17 11 8 4 359 356 356 350 344 338 333 330 309 314 324 320 150 342 351 10 54 45 358 316 338 247 61 149 323 199 184 41 107 63 337 330 348 312 274 218 182 273 15 46
9 11 7 2 359 355 352 346 341 335 325 312 312 306 328 344 319 9 348 9 33 52 13 338 294 325 182 176 110 323 273 162 200 95 57 303 316 310 237 242 161 150 144 103 46
2 2 2 358 356 351 346 343 338 331 319 291 288 253 339 271 240 321 357 50 51 38 36 23 5 347 1 78 78 189 311 337 319 280 232 239 245 241 258 262 157 143 115 104 106
358 357 359 355 353 350 342 338 334 330 321 232 199 180 303 261 149 331 62 50 53 52 53 49 35 325 288 228 158 278 299 284 271 227 241 246 264 106 239 134 143 151 209 291 74
349 351 354 353 352 348 341 338 331 332 339 178 157 149 286 244 224 16 79 78 55 46 106 63 16 31 345 280 326 310 313 304 225 205 220 77 286 228 243 184 175 193 217 239 152
343 347 346 347 349 349 343 338 341 349 91 143 137 151 242 188 144 63 121 69 60 47 80 71 16 316 217 284 307 297 232 328 258 140 167 103 276 227 182 160 200 215 226 210 180
335 340 340 341 345 349 347 342 359 26 91 130 138 165 276 146 188 127 173 109 127 160 30 284 10 103 51 89 352 287 259 241 313 196 145 196 262 203 204 197 216 219 212 210 187
328 333 336 336 342 346 350 337 26 87 60 204 280 10 200 139 138 145 64 152 224 191 208 212 70 68 16 110 231 200 268 295 267 259 214 244 255 251 225 220 223 219 207 206 167
320 324 326 333 341 351 351 342 13 356 228 210 195 269 115 117 156 133 87 296 246 192 204 226 90 217 215 215 171 139 217 248 277 280 284 248 274 275 246 255 243 192 192 172 156
341 333 318 326 343 4 21 59 76 286 310 356 110 101 93 182 229 140 146 164 192 244 168 65 235 214 129 126 157 159 276 276 282 61 346 292 291 288 284 257 201 177 163 175 183
336 338 319 316 343 10 72 59 20 334 266 349 45 45 82 174 310 118 280 193 248 246 206 191 136 138 154 226 264 229 209 246 247 338 288 320 305 318 333 87 99 155 176 162 88
330 338 341 345 342 6 58 357 34 88 42 259 73 11 16 327 250 312 49 135 264 266 258 241 152 180 209 238 155 291 65 17 334 36 289 68 283 292 213 232 235 234 222 94 35
322 341 352 24 339 80 325 325 326 131 346 340 118 252 18 125 104 197 325 111 211 224 100 253 179 195 205 222 144 227 10 298 202 126 35 337 60 273 179 258 246 243 172 58 17
317 340 353 332 100 57 326 321 144 35 256 23 153 186 101 163 226 136 248 273 53 302 223 247 61 207 220 51 166 13 19 51 73 94 337 233 137 273 207 213 209 113 62 12 325
282 256 211 285 186 338 322 23 38 219 348 295 290 333 347 224 176 126 97 264 234 330 297 279 196 86 84 113 15 60 60 333 354 323 226 192 213 255 245 224 199 253 304 290 313
115 183 96 119 355 316 310 44 171 252 285 315 339 265 244 13 49 105 326 295 226 29 285 206 285 162 20 182 168 162 147 151 250 270 277 237 237 254 231 257 241 222 250 298 4
29 67 64 14 59 226 98 101 206 249 189 346 307 50 302 75 339 12 242 221 147 202 192 284 266 103 64 38 85 242 88 150 91 97 316 242 279 290 310 298 299 295 332 323 323
279 126 37 5 49 76 99 236 195 81 121 122 265 142 314 189 7 208 267 330 70 18 108 301 324 155 130 56 17 111 164 59 12 357 304 286 283 243 285 276 280 292 304 279 275
210 9 16 12 70 57 224 224 165 106 99 161 262 297 273 307 231 241 275 27 11 305 339 136 135 160 79 191 175 72 95 50 121 138 186 296 270 223 208 211 247 279 278 240 265
252 222 16 16 76 243 204 217 165 146 113 114 242 211 254 304 250 237 276 140 351 333 312 193 213 256 239 243 242 165 179 152 125 260 231 154 272 218 212 211 217 276 268 260 212
133 104 42 41 166 215 136 284 215 130 170 176 224 208 129 271 293 249 347 186 323 306 274 273 229 309 257 62 9 184 221 149 118 74 216 147 261 307 303 303 278 259 261 297 336
120 207 346 43 47 249 195 220 158 116 226 228 254 136 170 251 235 291 312 51 355 281 279 245 276 225 226 207 129 199 215 194 140 131 212 232 287 293 301 283 297 281 265 285 294
201 229 183 167 197 194 153 108 196 181 208 217 215 204 182 288 204 229 228 256 184 290 249 272 252 252 267 253 192 217 191 193 202 200 193 263 240 286 296 287 249 237 250 294 329
151 171 325 101 79 183 184 198 227 158 166 218 217 169 205 221 224 264 183 225 280 187 268 70 294 341 281 20 167 260 220 206 216 262 274 278 285 266 296 308 287 252 212 227 249
141 141 138 156 170 161 206 193 183 199 211 262 220 251 228 242 305 285 256 321 296 324 209 214 324 5 270 330 304 305 221 182 191 219 162 185 226 292 291 277 254 232 200 192 204